Cosmos 1428 Rocket - Orbit

View from above orbital plane
View from above orbital plane
View from above satellite
View from above satellite

Ground track
Ground track

The orbit data is extracted from the following two-line orbital elements,

1 13758U 83001B   13141.67788948  .00000111  00000-0  93936-4 0  8731
2 13758 082.9104 341.8597 0027481 190.7692 236.4533 13.78549494526703
Epoch (UTC): 21 May 2013 16:16:09
Eccentricity: 0.0027481
inclination: 82.9104°
perigee height: 949 km
apogee height: 989 km
right ascension of ascending node: 341.8597°
argument of perigee: 190.7692°
revolutions per day: 13.78549494
mean anomaly at epoch: 236.4533°
orbit number at epoch: 52670

The dashed part of the orbit path shows where the satellite is in the earth's shadow,  

Developed and maintained by Chris Peat, Heavens-Above GmbH. Please read the updated FAQ before sending e-mail. Imprint. DLR